星链-3877 (STARLINK-3877 )

导读 | 豆包AI

STARLINK-3877是美国太空探索技术公司Starlink卫星互联网项目的卫星,于2022年4月29日发射升空,属于Starlink星座的第二批组网卫星。该卫星运行在近地轨道,旨在为全球提供高速低延迟的互联网接入服务,尤其覆盖偏远与网络基础设施匮乏区域,是Starlink大规模星座组网进程中的组成单元。

基本信息
目录编号:
52355
目录名称:
STARLINK-3877
国际标识:
2022-045AA
轨道中心:
EARTH
卫星名称:
星链-3877
卫星全名:
星链-3877 (STARLINK-3877 )
卫星状态:
在轨 (已飞行1415 天)
发射日期:
2022-04-29 UTC
国别 :
美国 (US)
星等 :
--
轨道信息
数据来源 国际轨道数据
星历时间: 2026-03-14T22:10:36+0800
9小时前
查看轨道信息
半长轴: 6917.924km
偏心率: 0.0001166
轨道倾角: 53.218°
近地点辐角 88.076°
升交点赤经 177.122°
平近点角 272.037°
近地点: 538.98km
远地点: 540.594km
周期: 95.438分钟
每日圈数: 15.088258
详细信息
固有亮度:
5
最大亮度:
2.5
卫星平台:
Starlink v1.5
覆盖范围:
全球
运营商:
太空探索技术公司
运营商所在国:
美国
制造商(研发单位):
太空探索技术公司
制造商所在国:
美国
使用方式:
暂无
卫星简介
星链(Starlink)计划是由太空探索技术公司(SpaceX)提出的一个巨型低轨卫星互联网星座项目,计划在2019年至2024年间在太空搭建由约1.2万颗卫星组成的“星链”网络,其中1584颗将部署在地球上空550千米处的近地轨道,并从2020年开始工作。该卫星仍在工作。
2D轨道图
3D轨道图
轨道高度分析图
轨道倾角分析图
轨道综合分析图
查看轨道综合分析图